Regional Weather Roundup
Issued by NWS

Home | Current Version | Previous Version | Text Only | Print | Product List | Glossary On
Versions: 1 2 3 4 5 6 7 8 9 10 11 12 13 14 15 16 17 18 19 20 21 22 23 24 25 26 27 28 29 30 31 32 33 34 35 36 37 38 39 40 41 42 43 44 45 46 47 48 49 50
000
ASCA42 TJSJ 230911
RWRPR
PUERTO RICO/U.S. VIRGIN ISLANDS HOURLY WEATHER ROUNDUP
NATIONAL WEATHER SERVICE SAN JUAN PR
500 AM AST SAT AUG 23 2014

PRZ001-004-231000-
PUERTO RICO

CITY           SKY/WX    TMP DP  RH WIND       PRES   REMARKS
SAN JUAN LMM   PTCLDY    77  75  94 CALM      29.86
PONCE          LGT RAIN  77  77 100 E12       29.82
AGUADILLA      LGT RAIN  73  72  94 E8        29.84F
CEIBA          MOCLDY    79  75  89 S9        29.89F
$$

PRZ006-007-231000-
U.S. VIRGIN ISLANDS

CITY           SKY/WX    TMP DP  RH WIND       PRES   REMARKS
CHRISTIANSTED  PTCLDY    81  75  83 SE9       29.89R
$$

HOURLY WEATHER ROUNDUP FOR THE NEWS MEDIA

CITY           SKY/WX    TMP DP  RH WIND       PRES   REMARKS
MIAMI          PTCLDY    80  71  74 CALM      29.94F
ORLANDO        CLEAR     78  72  81 SW3       29.97S
NEW YORK       MOCLDY    66  60  81 NE6       30.04S
NEWARK         MOCLDY    68  61  78 E5        30.04S
CHICAGO        CLOUDY    74  70  87 N5        29.98S FOG
HARTFORD       PTCLDY    62  60  93 N3        30.06R
DALLAS         CLEAR     83  68  60 S10       29.97R
PHILADELPHIA   MOCLDY    68  62  81 NE7       30.02S



USA.gov is the U.S. government's official web portal to all federal, state and local government web resources and services.